Time,TemperatureF,DewpointF,PressureIn,WindDirection,WindDirectionDegrees,WindSpeedMPH,WindSpeedGustMPH,Humidity,HourlyPrecipIn,Conditions,Clouds,dailyrainin,SoftwareType,DateUTC
2013-02-23 00:01:00,39.7,34.7,29.97,SW,222,7.0,7.0,82,0.00,,,0.10,Wunderground v.1.15,2013-02-23 08:01:00,
2013-02-23 00:06:00,39.9,34.9,29.97,SSW,211,2.0,7.0,82,0.00,,,0.10,Wunderground v.1.15,2013-02-23 08:06:00,
2013-02-23 00:12:00,40.0,34.6,29.97,South,177,3.0,6.0,81,0.00,,,0.10,Wunderground v.1.15,2013-02-23 08:12:00,
2013-02-23 00:17:00,40.2,34.8,29.97,SW,228,10.0,11.0,81,0.00,,,0.10,Wunderground v.1.15,2013-02-23 08:17:00,
2013-02-23 00:23:00,40.2,34.8,29.97,West,267,3.0,6.0,81,0.00,,,0.10,Wunderground v.1.15,2013-02-23 08:23:00,
2013-02-23 00:28:00,40.3,34.6,29.98,SW,223,4.0,11.0,80,0.00,,,0.10,Wunderground v.1.15,2013-02-23 08:28:00,
2013-02-23 00:34:00,40.3,34.6,29.98,SSW,198,8.0,10.0,80,0.00,,,0.10,Wunderground v.1.15,2013-02-23 08:34:00,
2013-02-23 00:39:00,40.4,34.7,29.98,SE,125,5.0,5.0,80,0.00,,,0.10,Wunderground v.1.15,2013-02-23 08:39:00,
2013-02-23 00:45:00,40.3,34.6,29.98,West,266,4.0,7.0,80,0.00,,,0.10,Wunderground v.1.15,2013-02-23 08:45:00,
2013-02-23 00:50:00,40.2,34.5,29.99,South,173,2.0,6.0,80,0.00,,,0.10,Wunderground v.1.15,2013-02-23 08:50:00,
2013-02-23 00:56:00,40.1,34.4,29.98,SW,230,10.0,10.0,80,0.00,,,0.10,Wunderground v.1.15,2013-02-23 08:56:00,
2013-02-23 01:01:00,40.0,34.3,29.98,SSW,198,2.0,6.0,80,0.00,,,0.10,Wunderground v.1.15,2013-02-23 09:01:00,
2013-02-23 01:07:00,39.8,34.1,29.99,WSW,237,4.0,9.0,80,0.00,,,0.10,Wunderground v.1.15,2013-02-23 09:07:00,
2013-02-23 01:13:00,39.8,34.1,29.99,SSW,205,1.0,6.0,80,0.00,,,0.10,Wunderground v.1.15,2013-02-23 09:13:00,
2013-02-23 01:18:00,39.7,34.0,29.99,West,267,1.0,6.0,80,0.00,,,0.10,Wunderground v.1.15,2013-02-23 09:18:00,
2013-02-23 01:24:00,39.6,33.9,29.99,SW,224,0.0,7.0,80,0.00,,,0.10,Wunderground v.1.15,2013-02-23 09:24:00,
2013-02-23 01:29:00,39.5,33.8,30.00,South,190,7.0,7.0,80,0.00,,,0.10,Wunderground v.1.15,2013-02-23 09:29:00,
2013-02-23 01:35:00,39.4,33.7,30.00,WSW,243,1.0,12.0,80,0.00,,,0.10,Wunderground v.1.15,2013-02-23 09:35:00,
2013-02-23 01:40:00,39.4,34.1,30.00,SSW,196,4.0,5.0,81,0.00,,,0.10,Wunderground v.1.15,2013-02-23 09:40:00,
2013-02-23 01:45:00,39.4,34.1,30.00,WSW,242,3.0,6.0,81,0.00,,,0.10,Wunderground v.1.15,2013-02-23 09:45:00,
2013-02-23 01:51:00,39.5,34.2,30.00,WSW,253,9.0,9.0,81,0.00,,,0.10,Wunderground v.1.15,2013-02-23 09:51:00,
2013-02-23 01:57:00,39.5,34.2,30.00,WSW,239,4.0,9.0,81,0.00,,,0.10,Wunderground v.1.15,2013-02-23 09:57:00,
2013-02-23 02:02:00,39.5,34.5,30.01,WSW,239,3.0,11.0,82,0.00,,,0.10,Wunderground v.1.15,2013-02-23 10:02:00,
2013-02-23 02:07:00,39.5,34.5,30.01,SSW,213,5.0,11.0,82,0.00,,,0.10,Wunderground v.1.15,2013-02-23 10:07:00,
2013-02-23 02:12:00,39.6,34.6,30.01,SW,225,7.0,11.0,82,0.00,,,0.10,Wunderground v.1.15,2013-02-23 10:12:00,
2013-02-23 02:17:00,39.6,34.6,30.01,South,182,1.0,11.0,82,0.00,,,0.10,Wunderground v.1.15,2013-02-23 10:17:00,
2013-02-23 02:22:00,39.7,35.0,30.01,SSW,206,4.0,15.0,83,0.00,,,0.10,Wunderground v.1.15,2013-02-23 10:22:00,
2013-02-23 02:27:00,39.7,34.7,30.01,SSW,211,5.0,15.0,82,0.00,,,0.10,Wunderground v.1.15,2013-02-23 10:27:00,
2013-02-23 02:32:00,39.8,34.8,30.01,SSW,211,6.0,10.0,82,0.00,,,0.10,Wunderground v.1.15,2013-02-23 10:32:00,
2013-02-23 02:37:00,39.9,34.9,30.01,SSE,161,1.0,10.0,82,0.00,,,0.10,Wunderground v.1.15,2013-02-23 10:37:00,
2013-02-23 02:42:00,40.0,34.9,30.02,SSW,211,2.0,9.0,82,0.00,,,0.10,Wunderground v.1.15,2013-02-23 10:42:00,
2013-02-23 02:47:00,40.0,34.9,30.01,SW,221,5.0,10.0,82,0.00,,,0.10,Wunderground v.1.15,2013-02-23 10:47:00,
2013-02-23 02:52:00,40.0,34.9,30.02,SSW,212,0.0,5.0,82,0.00,,,0.10,Wunderground v.1.15,2013-02-23 10:52:00,
2013-02-23 02:57:00,40.0,34.9,30.02,WSW,240,0.0,12.0,82,0.00,,,0.10,Wunderground v.1.15,2013-02-23 10:57:00,
2013-02-23 03:02:00,40.1,35.4,30.02,WSW,245,4.0,12.0,83,0.00,,,0.10,Wunderground v.1.15,2013-02-23 11:02:00,
2013-02-23 03:07:00,40.1,35.4,30.02,WSW,244,3.0,12.0,83,0.00,,,0.10,Wunderground v.1.15,2013-02-23 11:07:00,
2013-02-23 03:12:00,40.2,35.4,30.02,SSE,163,1.0,9.0,83,0.00,,,0.10,Wunderground v.1.15,2013-02-23 11:12:00,
2013-02-23 03:17:00,40.2,35.4,30.02,WSW,244,0.0,9.0,83,0.00,,,0.10,Wunderground v.1.15,2013-02-23 11:17:00,
2013-02-23 03:22:00,40.2,35.4,30.02,SW,233,10.0,10.0,83,0.00,,,0.10,Wunderground v.1.15,2013-02-23 11:22:00,
2013-02-23 03:27:00,40.2,35.4,30.02,NNW,329,1.0,11.0,83,0.00,,,0.10,Wunderground v.1.15,2013-02-23 11:27:00,
2013-02-23 03:32:00,40.1,35.4,30.02,SW,229,5.0,9.0,83,0.00,,,0.10,Wunderground v.1.15,2013-02-23 11:32:00,
2013-02-23 03:37:00,40.1,35.4,30.02,WSW,237,10.0,15.0,83,0.00,,,0.10,Wunderground v.1.15,2013-02-23 11:37:00,
2013-02-23 03:42:00,40.2,35.4,30.02,WSW,241,5.0,13.0,83,0.00,,,0.10,Wunderground v.1.15,2013-02-23 11:42:00,
2013-02-23 03:47:00,40.2,35.4,30.03,WSW,240,13.0,13.0,83,0.00,,,0.10,Wunderground v.1.15,2013-02-23 11:47:00,
2013-02-23 03:52:00,40.2,35.4,30.03,SW,215,4.0,9.0,83,0.00,,,0.10,Wunderground v.1.15,2013-02-23 11:52:00,
2013-02-23 03:58:00,40.2,35.4,30.04,SW,234,3.0,13.0,83,0.00,,,0.10,Wunderground v.1.15,2013-02-23 11:58:00,
2013-02-23 04:03:00,40.2,35.4,30.04,SW,227,4.0,9.0,83,0.00,,,0.10,Wunderground v.1.15,2013-02-23 12:03:00,
2013-02-23 04:08:00,40.2,35.4,30.03,WSW,243,2.0,12.0,83,0.00,,,0.10,Wunderground v.1.15,2013-02-23 12:08:00,
2013-02-23 04:13:00,40.1,35.4,30.04,SSW,200,3.0,9.0,83,0.00,,,0.10,Wunderground v.1.15,2013-02-23 12:13:00,
2013-02-23 04:18:00,40.1,35.7,30.04,SW,221,5.0,10.0,84,0.00,,,0.10,Wunderground v.1.15,2013-02-23 12:18:00,
2013-02-23 04:23:00,40.1,35.7,30.05,SW,215,2.0,7.0,84,0.00,,,0.10,Wunderground v.1.15,2013-02-23 12:23:00,
2013-02-23 04:28:00,40.1,35.7,30.04,SSW,207,2.0,10.0,84,0.00,,,0.10,Wunderground v.1.15,2013-02-23 12:28:00,
2013-02-23 04:33:00,40.0,35.6,30.04,SSW,204,0.0,13.0,84,0.00,,,0.10,Wunderground v.1.15,2013-02-23 12:33:00,
2013-02-23 04:38:00,40.0,35.6,30.05,SSW,209,7.0,13.0,84,0.00,,,0.10,Wunderground v.1.15,2013-02-23 12:38:00,
2013-02-23 04:43:00,40.1,35.7,30.05,SW,234,2.0,11.0,84,0.00,,,0.10,Wunderground v.1.15,2013-02-23 12:43:00,
2013-02-23 04:48:00,40.0,35.9,30.05,South,174,0.0,11.0,85,0.00,,,0.10,Wunderground v.1.15,2013-02-23 12:48:00,
2013-02-23 04:53:00,39.9,35.8,30.05,SSW,200,6.0,9.0,85,0.00,,,0.00,Wunderground v.1.15,2013-02-23 12:53:00,
2013-02-23 04:58:00,39.8,35.7,30.06,SSE,167,0.0,9.0,85,0.00,,,0.00,Wunderground v.1.15,2013-02-23 12:58:00,
2013-02-23 05:03:00,39.7,35.6,30.06,South,171,0.0,5.0,85,0.00,,,0.00,Wunderground v.1.15,2013-02-23 13:03:00,
2013-02-23 05:08:00,39.7,35.6,30.06,South,170,9.0,9.0,85,0.00,,,0.00,Wunderground v.1.15,2013-02-23 13:08:00,
2013-02-23 05:13:00,39.7,35.6,30.06,SSW,213,4.0,10.0,85,0.00,,,0.00,Wunderground v.1.15,2013-02-23 13:13:00,
2013-02-23 05:18:00,39.7,35.6,30.07,SSW,198,4.0,11.0,85,0.00,,,0.00,Wunderground v.1.15,2013-02-23 13:18:00,
2013-02-23 05:23:00,39.7,35.6,30.06,SSW,200,0.0,7.0,85,0.00,,,0.00,Wunderground v.1.15,2013-02-23 13:23:00,
2013-02-23 05:28:00,39.8,35.7,30.06,South,170,2.0,7.0,85,0.00,,,0.00,Wunderground v.1.15,2013-02-23 13:28:00,
2013-02-23 05:33:00,39.8,35.7,30.08,SSE,148,1.0,7.0,85,0.00,,,0.00,Wunderground v.1.15,2013-02-23 13:33:00,
2013-02-23 05:38:00,39.7,35.6,30.08,SSE,151,0.0,7.0,85,0.00,,,0.00,Wunderground v.1.15,2013-02-23 13:38:00,
2013-02-23 05:43:00,39.7,35.6,30.08,South,178,0.0,7.0,85,0.00,,,0.00,Wunderground v.1.15,2013-02-23 13:43:00,
2013-02-23 05:48:00,39.7,35.6,30.08,SSW,198,2.0,9.0,85,0.00,,,0.00,Wunderground v.1.15,2013-02-23 13:48:00,
2013-02-23 05:53:00,39.7,35.6,30.08,South,183,1.0,9.0,85,0.00,,,0.00,Wunderground v.1.15,2013-02-23 13:53:00,
2013-02-23 05:58:00,39.6,35.5,30.08,South,182,0.0,9.0,85,0.00,,,0.00,Wunderground v.1.15,2013-02-23 13:58:00,
2013-02-23 06:03:00,39.6,35.5,30.09,South,176,4.0,5.0,85,0.00,,,0.00,Wunderground v.1.15,2013-02-23 14:03:00,
2013-02-23 06:08:00,39.6,35.5,30.09,South,182,2.0,5.0,85,0.00,,,0.00,Wunderground v.1.15,2013-02-23 14:08:00,
2013-02-23 06:13:00,39.6,35.5,30.10,SSE,147,0.0,5.0,85,0.00,,,0.00,Wunderground v.1.15,2013-02-23 14:13:00,
2013-02-23 06:18:00,39.7,35.6,30.10,SSE,148,0.0,5.0,85,0.00,,,0.00,Wunderground v.1.15,2013-02-23 14:18:00,
2013-02-23 06:23:00,39.7,35.6,30.10,SE,143,0.0,5.0,85,0.00,,,0.00,Wunderground v.1.15,2013-02-23 14:23:00,
2013-02-23 06:28:00,39.7,35.6,30.11,South,174,0.0,5.0,85,0.00,,,0.00,Wunderground v.1.15,2013-02-23 14:28:00,
2013-02-23 06:33:00,39.7,35.6,30.11,SSW,209,0.0,4.0,85,0.00,,,0.00,Wunderground v.1.15,2013-02-23 14:33:00,
2013-02-23 06:38:00,39.8,35.7,30.12,South,188,0.0,4.0,85,0.00,,,0.00,Wunderground v.1.15,2013-02-23 14:38:00,
2013-02-23 06:43:00,39.8,35.7,30.12,South,188,0.0,0.0,85,0.00,,,0.00,Wunderground v.1.15,2013-02-23 14:43:00,
2013-02-23 06:49:00,39.9,35.8,30.12,SSE,151,0.0,5.0,85,0.00,,,0.00,Wunderground v.1.15,2013-02-23 14:49:00,
2013-02-23 06:54:00,39.9,35.8,30.12,SE,140,1.0,5.0,85,0.00,,,0.00,Wunderground v.1.15,2013-02-23 14:54:00,
2013-02-23 06:59:00,40.0,35.9,30.12,SE,133,1.0,5.0,85,0.00,,,0.00,Wunderground v.1.15,2013-02-23 14:59:00,
2013-02-23 07:04:00,40.1,36.0,30.12,SSE,161,0.0,5.0,85,0.00,,,0.00,Wunderground v.1.15,2013-02-23 15:04:00,
2013-02-23 07:09:00,40.1,36.0,30.13,SSE,164,0.0,5.0,85,0.00,,,0.00,Wunderground v.1.15,2013-02-23 15:09:00,
2013-02-23 07:14:00,40.1,36.0,30.13,SSW,193,4.0,5.0,85,0.00,,,0.00,Wunderground v.1.15,2013-02-23 15:14:00,
2013-02-23 07:19:00,40.2,36.1,30.14,SSW,194,0.0,5.0,85,0.00,,,0.00,Wunderground v.1.15,2013-02-23 15:19:00,
2013-02-23 07:24:00,40.2,36.1,30.14,SE,135,0.0,5.0,85,0.00,,,0.00,Wunderground v.1.15,2013-02-23 15:24:00,
2013-02-23 07:29:00,40.3,35.8,30.14,South,180,0.0,5.0,84,0.00,,,0.00,Wunderground v.1.15,2013-02-23 15:29:00,
2013-02-23 07:34:00,40.3,36.1,30.15,SSE,164,0.0,5.0,85,0.00,,,0.00,Wunderground v.1.15,2013-02-23 15:34:00,
2013-02-23 07:39:00,40.4,35.9,30.14,SE,144,1.0,5.0,84,0.00,,,0.00,Wunderground v.1.15,2013-02-23 15:39:00,
2013-02-23 07:44:00,40.5,36.0,30.15,SW,236,2.0,6.0,84,0.00,,,0.00,Wunderground v.1.15,2013-02-23 15:44:00,
2013-02-23 07:49:00,40.5,36.0,30.15,SSW,204,0.0,6.0,84,0.00,,,0.00,Wunderground v.1.15,2013-02-23 15:49:00,
2013-02-23 07:54:00,40.6,36.1,30.15,SSE,160,0.0,5.0,84,0.00,,,0.00,Wunderground v.1.15,2013-02-23 15:54:00,
2013-02-23 07:59:00,40.7,36.2,30.15,SSW,202,0.0,10.0,84,0.00,,,0.00,Wunderground v.1.15,2013-02-23 15:59:00,
2013-02-23 08:04:00,40.8,36.3,30.15,South,170,0.0,6.0,84,0.00,,,0.00,Wunderground v.1.15,2013-02-23 16:04:00,
2013-02-23 08:09:00,40.8,36.3,30.16,SSE,168,0.0,9.0,84,0.00,,,0.00,Wunderground v.1.15,2013-02-23 16:09:00,
2013-02-23 08:14:00,40.9,36.4,30.16,SW,236,3.0,9.0,84,0.00,,,0.00,Wunderground v.1.15,2013-02-23 16:14:00,
2013-02-23 08:19:00,41.0,36.5,30.17,SSW,209,3.0,12.0,84,0.00,,,0.00,Wunderground v.1.15,2013-02-23 16:19:00,
2013-02-23 08:24:00,41.1,36.6,30.17,SE,140,2.0,6.0,84,0.00,,,0.00,Wunderground v.1.15,2013-02-23 16:24:00,
2013-02-23 08:29:00,41.2,36.7,30.17,SE,126,0.0,1.0,84,0.00,,,0.00,Wunderground v.1.15,2013-02-23 16:29:00,
2013-02-23 08:34:00,41.2,36.7,30.17,SSE,167,0.0,4.0,84,0.00,,,0.00,Wunderground v.1.15,2013-02-23 16:34:00,
2013-02-23 08:39:00,41.3,36.8,30.17,SSW,198,0.0,3.0,84,0.00,,,0.00,Wunderground v.1.15,2013-02-23 16:39:00,
2013-02-23 08:44:00,41.3,36.8,30.18,SSW,192,0.0,7.0,84,0.00,,,0.00,Wunderground v.1.15,2013-02-23 16:44:00,
2013-02-23 08:49:00,41.4,36.6,30.19,SW,223,1.0,1.0,83,0.00,,,0.00,Wunderground v.1.15,2013-02-23 16:49:00,
2013-02-23 08:54:00,41.4,36.6,30.20,South,184,0.0,4.0,83,0.00,,,0.00,Wunderground v.1.15,2013-02-23 16:54:00,
2013-02-23 08:59:00,41.5,36.7,30.20,South,175,0.0,0.0,83,0.00,,,0.00,Wunderground v.1.15,2013-02-23 16:59:00,
2013-02-23 09:04:00,41.6,36.8,30.20,SSW,196,0.0,4.0,83,0.00,,,0.00,Wunderground v.1.15,2013-02-23 17:04:00,
2013-02-23 09:09:00,41.7,36.9,30.20,SSW,211,0.0,1.0,83,0.00,,,0.00,Wunderground v.1.15,2013-02-23 17:09:00,
2013-02-23 09:14:00,41.8,37.0,30.20,SSW,202,1.0,4.0,83,0.00,,,0.00,Wunderground v.1.15,2013-02-23 17:14:00,
2013-02-23 09:19:00,42.0,37.2,30.21,SSE,159,0.0,1.0,83,0.00,,,0.00,Wunderground v.1.15,2013-02-23 17:19:00,
2013-02-23 09:24:00,42.1,37.0,30.21,SSE,165,4.0,6.0,82,0.00,,,0.00,Wunderground v.1.15,2013-02-23 17:24:00,
2013-02-23 09:29:00,42.2,37.1,30.22,SSW,202,0.0,1.0,82,0.00,,,0.00,Wunderground v.1.15,2013-02-23 17:29:00,
2013-02-23 09:34:00,42.3,36.9,30.21,SSE,159,2.0,6.0,81,0.00,,,0.00,Wunderground v.1.15,2013-02-23 17:34:00,
2013-02-23 09:39:00,42.4,37.0,30.22,SSW,200,0.0,2.0,81,0.00,,,0.00,Wunderground v.1.15,2013-02-23 17:39:00,
2013-02-23 09:44:00,42.4,36.7,30.22,SSW,200,0.0,4.0,80,0.00,,,0.00,Wunderground v.1.15,2013-02-23 17:44:00,
2013-02-23 09:49:00,42.5,36.8,30.22,SSE,165,2.0,2.0,80,0.00,,,0.00,Wunderground v.1.15,2013-02-23 17:49:00,
2013-02-23 09:54:00,42.6,36.9,30.22,WSW,244,0.0,5.0,80,0.00,,,0.00,Wunderground v.1.15,2013-02-23 17:54:00,
2013-02-23 09:59:00,42.6,36.5,30.22,South,190,4.0,5.0,79,0.00,,,0.00,Wunderground v.1.15,2013-02-23 17:59:00,
2013-02-23 10:04:00,42.7,36.6,30.23,SSW,194,1.0,5.0,79,0.00,,,0.00,Wunderground v.1.15,2013-02-23 18:04:00,
2013-02-23 10:09:00,42.9,36.8,30.23,South,181,0.0,1.0,79,0.00,,,0.00,Wunderground v.1.15,2013-02-23 18:09:00,
2013-02-23 10:14:00,43.0,36.9,30.24,SSW,196,0.0,3.0,79,0.00,,,0.00,Wunderground v.1.15,2013-02-23 18:14:00,
2013-02-23 10:19:00,43.2,37.1,30.24,SW,215,0.0,2.0,79,0.00,,,0.00,Wunderground v.1.15,2013-02-23 18:19:00,
2013-02-23 10:24:00,43.2,36.8,30.24,SW,224,3.0,9.0,78,0.00,,,0.00,Wunderground v.1.15,2013-02-23 18:24:00,
2013-02-23 10:29:00,43.1,36.4,30.24,SSW,213,4.0,4.0,77,0.00,,,0.00,Wunderground v.1.15,2013-02-23 18:29:00,
2013-02-23 10:34:00,43.2,36.8,30.24,South,178,0.0,10.0,78,0.00,,,0.00,Wunderground v.1.15,2013-02-23 18:34:00,
2013-02-23 10:39:00,43.3,36.9,30.24,SW,218,6.0,6.0,78,0.00,,,0.00,Wunderground v.1.15,2013-02-23 18:39:00,
2013-02-23 10:44:00,43.3,36.6,30.25,South,170,3.0,12.0,77,0.00,,,0.00,Wunderground v.1.15,2013-02-23 18:44:00,
2013-02-23 10:49:00,43.2,36.5,30.25,SW,217,2.0,7.0,77,0.00,,,0.00,Wunderground v.1.15,2013-02-23 18:49:00,
2013-02-23 10:54:00,43.3,36.6,30.25,SSW,199,0.0,10.0,77,0.00,,,0.00,Wunderground v.1.15,2013-02-23 18:54:00,
2013-02-23 10:59:00,43.4,37.0,30.25,South,171,3.0,4.0,78,0.00,,,0.00,Wunderground v.1.15,2013-02-23 18:59:00,
2013-02-23 11:04:00,43.8,37.4,30.25,South,170,6.0,13.0,78,0.00,,,0.00,Wunderground v.1.15,2013-02-23 19:04:00,
2013-02-23 11:09:00,44.0,37.3,30.25,WSW,245,1.0,4.0,77,0.00,,,0.00,Wunderground v.1.15,2013-02-23 19:09:00,
2013-02-23 11:14:00,44.0,36.9,30.26,SW,216,4.0,12.0,76,0.00,,,0.00,Wunderground v.1.15,2013-02-23 19:14:00,
2013-02-23 11:19:00,44.1,37.0,30.26,SSE,165,1.0,4.0,76,0.00,,,0.00,Wunderground v.1.15,2013-02-23 19:19:00,
2013-02-23 11:24:00,44.2,36.8,30.26,SW,215,6.0,10.0,75,0.00,,,0.00,Wunderground v.1.15,2013-02-23 19:24:00,
2013-02-23 11:29:00,44.3,37.2,30.26,SW,216,3.0,7.0,76,0.00,,,0.00,Wunderground v.1.15,2013-02-23 19:29:00,
2013-02-23 11:34:00,44.5,37.4,30.27,South,170,1.0,9.0,76,0.00,,,0.00,Wunderground v.1.15,2013-02-23 19:34:00,
2013-02-23 11:39:00,44.8,37.4,30.27,SSW,200,5.0,5.0,75,0.00,,,0.00,Wunderground v.1.15,2013-02-23 19:39:00,
2013-02-23 11:44:00,45.2,37.7,30.27,SW,232,5.0,9.0,75,0.00,,,0.00,Wunderground v.1.15,2013-02-23 19:44:00,
2013-02-23 11:49:00,45.5,37.3,30.27,South,172,3.0,5.0,73,0.00,,,0.00,Wunderground v.1.15,2013-02-23 19:49:00,
2013-02-23 11:54:00,45.9,37.7,30.27,NE,46,2.0,10.0,73,0.00,,,0.00,Wunderground v.1.15,2013-02-23 19:54:00,
2013-02-23 11:59:00,46.0,37.5,30.27,SSW,192,0.0,3.0,72,0.00,,,0.00,Wunderground v.1.15,2013-02-23 19:59:00,
2013-02-23 12:04:00,46.0,37.1,30.27,South,187,7.0,10.0,71,0.00,,,0.00,Wunderground v.1.15,2013-02-23 20:04:00,
2013-02-23 12:09:00,45.9,37.0,30.27,SW,220,3.0,3.0,71,0.00,,,0.00,Wunderground v.1.15,2013-02-23 20:09:00,
2013-02-23 12:14:00,45.8,36.9,30.27,SSW,198,0.0,9.0,71,0.00,,,0.00,Wunderground v.1.15,2013-02-23 20:14:00,
2013-02-23 12:19:00,45.8,36.9,30.27,SSW,194,5.0,6.0,71,0.00,,,0.00,Wunderground v.1.15,2013-02-23 20:19:00,
2013-02-23 12:25:00,45.9,37.0,30.28,SSE,164,1.0,7.0,71,0.00,,,0.00,Wunderground v.1.15,2013-02-23 20:25:00,
2013-02-23 12:30:00,46.0,37.5,30.27,South,177,6.0,6.0,72,0.00,,,0.00,Wunderground v.1.15,2013-02-23 20:30:00,
2013-02-23 12:35:00,46.1,36.9,30.27,SW,234,1.0,7.0,70,0.00,,,0.00,Wunderground v.1.15,2013-02-23 20:35:00,
2013-02-23 12:40:00,46.3,37.0,30.27,SSW,202,6.0,6.0,70,0.00,,,0.00,Wunderground v.1.15,2013-02-23 20:40:00,
2013-02-23 12:45:00,46.6,37.0,30.27,SSW,209,3.0,10.0,69,0.00,,,0.00,Wunderground v.1.15,2013-02-23 20:45:00,
2013-02-23 12:50:00,46.7,37.1,30.27,SW,215,7.0,7.0,69,0.00,,,0.00,Wunderground v.1.15,2013-02-23 20:50:00,
2013-02-23 12:55:00,46.6,37.0,30.27,SW,221,3.0,10.0,69,0.00,,,0.00,Wunderground v.1.15,2013-02-23 20:55:00,
2013-02-23 13:00:00,46.7,37.1,30.27,SSW,199,2.0,4.0,69,0.00,,,0.00,Wunderground v.1.15,2013-02-23 21:00:00,
2013-02-23 13:05:00,46.7,36.7,30.28,SW,215,3.0,7.0,68,0.00,,,0.00,Wunderground v.1.15,2013-02-23 21:05:00,
2013-02-23 13:10:00,46.7,36.7,30.28,SW,234,3.0,6.0,68,0.00,,,0.00,Wunderground v.1.15,2013-02-23 21:10:00,
2013-02-23 13:15:00,46.7,36.7,30.28,SW,223,1.0,7.0,68,0.00,,,0.00,Wunderground v.1.15,2013-02-23 21:15:00,
2013-02-23 13:20:00,46.8,36.8,30.28,SSW,209,0.0,2.0,68,0.00,,,0.00,Wunderground v.1.15,2013-02-23 21:20:00,
2013-02-23 13:25:00,46.9,36.5,30.28,SSW,211,6.0,6.0,67,0.00,,,0.00,Wunderground v.1.15,2013-02-23 21:25:00,
2013-02-23 13:30:00,46.9,36.9,30.28,SW,236,4.0,4.0,68,0.00,,,0.00,Wunderground v.1.15,2013-02-23 21:30:00,
2013-02-23 13:35:00,47.0,36.6,30.28,SSW,200,0.0,6.0,67,0.00,,,0.00,Wunderground v.1.15,2013-02-23 21:35:00,
2013-02-23 13:40:00,47.2,36.8,30.28,South,191,1.0,1.0,67,0.00,,,0.00,Wunderground v.1.15,2013-02-23 21:40:00,
2013-02-23 13:45:00,47.2,36.8,30.28,SSW,209,3.0,5.0,67,0.00,,,0.00,Wunderground v.1.15,2013-02-23 21:45:00,
2013-02-23 13:50:00,47.3,36.9,30.29,SSW,209,0.0,1.0,67,0.00,,,0.00,Wunderground v.1.15,2013-02-23 21:50:00,
2013-02-23 13:55:00,47.4,37.0,30.28,South,190,0.0,1.0,67,0.00,,,0.00,Wunderground v.1.15,2013-02-23 21:55:00,
2013-02-23 14:00:00,47.6,37.2,30.28,South,190,0.0,0.0,67,0.00,,,0.00,Wunderground v.1.15,2013-02-23 22:00:00,
2013-02-23 14:05:00,47.8,37.0,30.29,South,173,1.0,2.0,66,0.00,,,0.00,Wunderground v.1.15,2013-02-23 22:05:00,
2013-02-23 14:10:00,48.1,36.9,30.29,South,173,0.0,0.0,65,0.00,,,0.00,Wunderground v.1.15,2013-02-23 22:10:00,
2013-02-23 14:15:00,48.4,36.8,30.29,South,173,0.0,0.0,64,0.00,,,0.00,Wunderground v.1.15,2013-02-23 22:15:00,
2013-02-23 14:20:00,48.9,36.9,30.29,South,177,0.0,0.0,63,0.00,,,0.00,Wunderground v.1.15,2013-02-23 22:20:00,
2013-02-23 14:25:00,49.2,35.9,30.30,SSE,155,0.0,3.0,60,0.00,,,0.00,Wunderground v.1.15,2013-02-23 22:25:00,
2013-02-23 14:30:00,49.4,36.1,30.30,SSE,154,0.0,0.0,60,0.00,,,0.00,Wunderground v.1.15,2013-02-23 22:30:00,
2013-02-23 14:35:00,49.4,36.5,30.30,East,101,0.0,4.0,61,0.00,,,0.00,Wunderground v.1.15,2013-02-23 22:35:00,
2013-02-23 14:40:00,49.1,36.6,30.30,East,100,1.0,2.0,62,0.00,,,0.00,Wunderground v.1.15,2013-02-23 22:40:00,
2013-02-23 14:45:00,48.7,36.7,30.30,ESE,106,0.0,3.0,63,0.00,,,0.00,Wunderground v.1.15,2013-02-23 22:45:00,
2013-02-23 14:50:00,48.6,38.1,30.31,ESE,106,0.0,0.0,67,0.00,,,0.00,Wunderground v.1.15,2013-02-23 22:50:00,
2013-02-23 14:55:00,48.6,37.0,30.31,ESE,105,0.0,0.0,64,0.00,,,0.00,Wunderground v.1.15,2013-02-23 22:55:00,
2013-02-23 15:00:00,48.4,37.2,30.31,ESE,105,0.0,0.0,65,0.00,,,0.00,Wunderground v.1.15,2013-02-23 23:00:00,
2013-02-23 15:05:00,48.3,37.1,30.31,ESE,105,0.0,0.0,65,0.00,,,0.00,Wunderground v.1.15,2013-02-23 23:05:00,
2013-02-23 15:10:00,48.2,37.0,30.31,ESE,104,0.0,0.0,65,0.00,,,0.00,Wunderground v.1.15,2013-02-23 23:10:00,
2013-02-23 15:15:00,48.1,36.9,30.31,ESE,104,0.0,2.0,65,0.00,,,0.00,Wunderground v.1.15,2013-02-23 23:15:00,
2013-02-23 15:20:00,47.9,37.1,30.31,ESE,104,2.0,3.0,66,0.00,,,0.00,Wunderground v.1.15,2013-02-23 23:20:00,
2013-02-23 15:25:00,47.8,37.7,30.31,East,92,0.0,4.0,68,0.00,,,0.00,Wunderground v.1.15,2013-02-23 23:25:00,
2013-02-23 15:30:00,47.5,37.1,30.31,East,92,0.0,1.0,67,0.00,,,0.00,Wunderground v.1.15,2013-02-23 23:30:00,
2013-02-23 15:35:00,47.4,37.4,30.31,East,90,4.0,4.0,68,0.00,,,0.00,Wunderground v.1.15,2013-02-23 23:35:00,
2013-02-23 15:40:00,47.4,37.4,30.32,East,88,1.0,3.0,68,0.00,,,0.00,Wunderground v.1.15,2013-02-23 23:40:00,
2013-02-23 15:46:00,47.4,36.2,30.32,East,88,0.0,3.0,65,0.00,,,0.00,Wunderground v.1.15,2013-02-23 23:46:00,
2013-02-23 15:51:00,47.5,36.3,30.32,East,88,0.0,1.0,65,0.00,,,0.00,Wunderground v.1.15,2013-02-23 23:51:00,
2013-02-23 15:56:00,47.5,36.3,30.32,East,80,1.0,6.0,65,0.00,,,0.00,Wunderground v.1.15,2013-02-23 23:56:00,
2013-02-23 16:01:00,47.4,36.6,30.32,East,79,3.0,4.0,66,0.00,,,0.00,Wunderground v.1.15,2013-02-24 00:01:00,
2013-02-23 16:06:00,47.3,36.5,30.32,ENE,76,0.0,4.0,66,0.00,,,0.00,Wunderground v.1.15,2013-02-24 00:06:00,
2013-02-23 16:11:00,47.2,37.5,30.32,ENE,76,0.0,2.0,69,0.00,,,0.00,Wunderground v.1.15,2013-02-24 00:11:00,
2013-02-23 16:16:00,47.2,36.0,30.32,East,98,0.0,4.0,65,0.00,,,0.00,Wunderground v.1.15,2013-02-24 00:16:00,
2013-02-23 16:21:00,47.1,36.7,30.32,East,94,3.0,3.0,67,0.00,,,0.00,Wunderground v.1.15,2013-02-24 00:21:00,
2013-02-23 16:26:00,47.0,35.8,30.32,East,80,3.0,5.0,65,0.00,,,0.00,Wunderground v.1.15,2013-02-24 00:26:00,
2013-02-23 16:31:00,46.9,35.7,30.32,ESE,102,3.0,4.0,65,0.00,,,0.00,Wunderground v.1.15,2013-02-24 00:31:00,
2013-02-23 16:36:00,46.7,35.9,30.32,East,80,3.0,7.0,66,0.00,,,0.00,Wunderground v.1.15,2013-02-24 00:36:00,
2013-02-23 16:41:00,46.5,35.7,30.32,East,80,4.0,5.0,66,0.00,,,0.00,Wunderground v.1.15,2013-02-24 00:41:00,
2013-02-23 16:46:00,46.3,35.6,30.32,ENE,70,5.0,6.0,66,0.00,,,0.00,Wunderground v.1.15,2013-02-24 00:46:00,
2013-02-23 16:51:00,46.1,35.7,30.32,ENE,69,0.0,4.0,67,0.00,,,0.00,Wunderground v.1.15,2013-02-24 00:51:00,
2013-02-23 16:56:00,46.0,36.0,30.32,ENE,69,0.0,4.0,68,0.00,,,0.00,Wunderground v.1.15,2013-02-24 00:56:00,
2013-02-23 17:01:00,45.9,35.9,30.33,ENE,69,0.0,0.0,68,0.00,,,0.00,Wunderground v.1.15,2013-02-24 01:01:00,
2013-02-23 17:06:00,45.8,35.5,30.33,ENE,69,0.0,0.0,67,0.00,,,0.00,Wunderground v.1.15,2013-02-24 01:06:00,
2013-02-23 17:12:00,45.8,36.2,30.33,ENE,69,0.0,0.0,69,0.00,,,0.00,Wunderground v.1.15,2013-02-24 01:12:00,
2013-02-23 17:17:00,45.8,35.8,30.33,ENE,69,0.0,0.0,68,0.00,,,0.00,Wunderground v.1.15,2013-02-24 01:17:00,
2013-02-23 17:22:00,45.8,35.8,30.34,SE,138,0.0,4.0,68,0.00,,,0.00,Wunderground v.1.15,2013-02-24 01:22:00,
2013-02-23 17:27:00,45.7,36.5,30.34,SE,138,0.0,4.0,70,0.00,,,0.00,Wunderground v.1.15,2013-02-24 01:27:00,
2013-02-23 17:32:00,45.7,36.5,30.34,SE,138,0.0,0.0,70,0.00,,,0.00,Wunderground v.1.15,2013-02-24 01:32:00,
2013-02-23 17:37:00,45.6,36.4,30.34,SE,138,0.0,0.0,70,0.00,,,0.00,Wunderground v.1.15,2013-02-24 01:37:00,
2013-02-23 17:42:00,45.5,36.3,30.35,SE,138,0.0,0.0,70,0.00,,,0.00,Wunderground v.1.15,2013-02-24 01:42:00,
2013-02-23 17:47:00,45.4,36.5,30.35,SE,138,0.0,0.0,71,0.00,,,0.00,Wunderground v.1.15,2013-02-24 01:47:00,
2013-02-23 17:52:00,45.3,36.8,30.36,NW,317,1.0,3.0,72,0.00,,,0.00,Wunderground v.1.15,2013-02-24 01:52:00,
2013-02-23 17:57:00,45.1,36.6,30.36,NW,317,0.0,3.0,72,0.00,,,0.00,Wunderground v.1.15,2013-02-24 01:57:00,
2013-02-23 18:02:00,45.0,36.2,30.36,NNW,327,1.0,4.0,71,0.00,,,0.00,Wunderground v.1.15,2013-02-24 02:02:00,
2013-02-23 18:07:00,44.9,36.1,30.36,NNW,329,0.0,4.0,71,0.00,,,0.00,Wunderground v.1.15,2013-02-24 02:07:00,
2013-02-23 18:12:00,44.9,36.1,30.36,NNW,329,0.0,1.0,71,0.00,,,0.00,Wunderground v.1.15,2013-02-24 02:12:00,
2013-02-23 18:17:00,44.9,36.4,30.36,NNW,329,0.0,1.0,72,0.00,,,0.00,Wunderground v.1.15,2013-02-24 02:17:00,
2013-02-23 18:22:00,44.9,36.4,30.36,NNW,333,1.0,1.0,72,0.00,,,0.00,Wunderground v.1.15,2013-02-24 02:22:00,
2013-02-23 18:27:00,44.9,36.4,30.36,NNW,348,0.0,2.0,72,0.00,,,0.00,Wunderground v.1.15,2013-02-24 02:27:00,
2013-02-23 18:32:00,44.9,37.1,30.37,North,350,2.0,2.0,74,0.00,,,0.00,Wunderground v.1.15,2013-02-24 02:32:00,
2013-02-23 18:38:00,44.8,36.7,30.37,SE,128,4.0,6.0,73,0.00,,,0.00,Wunderground v.1.15,2013-02-24 02:38:00,
2013-02-23 18:43:00,44.8,36.7,30.37,SE,125,6.0,6.0,73,0.00,,,0.00,Wunderground v.1.15,2013-02-24 02:43:00,
2013-02-23 18:48:00,44.6,36.5,30.37,SE,128,6.0,8.0,73,0.00,,,0.00,Wunderground v.1.15,2013-02-24 02:48:00,
2013-02-23 18:53:00,44.5,36.7,30.37,SE,134,4.0,8.0,74,0.00,,,0.00,Wunderground v.1.15,2013-02-24 02:53:00,
2013-02-23 18:58:00,44.5,36.7,30.37,SE,137,0.0,8.0,74,0.00,,,0.00,Wunderground v.1.15,2013-02-24 02:58:00,
2013-02-23 19:03:00,44.4,37.0,30.37,SE,137,0.0,2.0,75,0.00,,,0.00,Wunderground v.1.15,2013-02-24 03:03:00,
2013-02-23 19:08:00,44.3,36.9,30.38,SE,138,0.0,2.0,75,0.00,,,0.00,Wunderground v.1.15,2013-02-24 03:08:00,
2013-02-23 19:13:00,44.1,37.3,30.38,SE,138,0.0,0.0,77,0.00,,,0.00,Wunderground v.1.15,2013-02-24 03:13:00,
2013-02-23 19:18:00,44.0,37.3,30.39,SE,138,0.0,0.0,77,0.00,,,0.00,Wunderground v.1.15,2013-02-24 03:18:00,
2013-02-23 19:23:00,43.9,37.2,30.38,SE,138,0.0,0.0,77,0.00,,,0.00,Wunderground v.1.15,2013-02-24 03:23:00,
2013-02-23 19:28:00,43.7,37.3,30.38,SE,138,0.0,0.0,78,0.00,,,0.00,Wunderground v.1.15,2013-02-24 03:28:00,
2013-02-23 19:33:00,43.5,37.1,30.39,SE,142,0.0,0.0,78,0.00,,,0.00,Wunderground v.1.15,2013-02-24 03:33:00,
2013-02-23 19:38:00,43.4,37.3,30.39,SE,143,0.0,0.0,79,0.00,,,0.00,Wunderground v.1.15,2013-02-24 03:38:00,
2013-02-23 19:43:00,43.3,37.2,30.39,SE,146,1.0,4.0,79,0.00,,,0.00,Wunderground v.1.15,2013-02-24 03:43:00,
2013-02-23 19:48:00,43.2,37.4,30.39,SE,145,0.0,4.0,80,0.00,,,0.00,Wunderground v.1.15,2013-02-24 03:48:00,
2013-02-23 19:53:00,43.0,37.6,30.40,SSE,161,0.0,4.0,81,0.00,,,0.00,Wunderground v.1.15,2013-02-24 03:53:00,
2013-02-23 19:58:00,42.9,37.5,30.40,SSE,161,0.0,4.0,81,0.00,,,0.00,Wunderground v.1.15,2013-02-24 03:58:00,
2013-02-23 20:03:00,42.7,37.6,30.41,SSE,159,2.0,6.0,82,0.00,,,0.00,Wunderground v.1.15,2013-02-24 04:03:00,
2013-02-23 20:08:00,42.6,37.8,30.40,SSE,161,0.0,6.0,83,0.00,,,0.00,Wunderground v.1.15,2013-02-24 04:08:00,
2013-02-23 20:13:00,42.4,37.6,30.41,SSE,163,0.0,3.0,83,0.00,,,0.00,Wunderground v.1.15,2013-02-24 04:13:00,
2013-02-23 20:18:00,42.2,37.7,30.41,SSE,163,2.0,3.0,84,0.00,,,0.00,Wunderground v.1.15,2013-02-24 04:18:00,
2013-02-23 20:23:00,42.0,37.5,30.41,SSE,162,0.0,3.0,84,0.00,,,0.00,Wunderground v.1.15,2013-02-24 04:23:00,
2013-02-23 20:28:00,41.8,37.6,30.41,SE,124,2.0,6.0,85,0.00,,,0.00,Wunderground v.1.15,2013-02-24 04:28:00,
2013-02-23 20:33:00,41.7,37.5,30.41,SE,128,0.0,2.0,85,0.00,,,0.00,Wunderground v.1.15,2013-02-24 04:33:00,
2013-02-23 20:38:00,41.6,37.4,30.41,SE,128,0.0,2.0,85,0.00,,,0.00,Wunderground v.1.15,2013-02-24 04:38:00,
2013-02-23 20:43:00,41.5,37.3,30.41,SE,138,0.0,3.0,85,0.00,,,0.00,Wunderground v.1.15,2013-02-24 04:43:00,
2013-02-23 20:48:00,41.3,37.1,30.41,South,182,0.0,3.0,85,0.00,,,0.00,Wunderground v.1.15,2013-02-24 04:48:00,
2013-02-23 20:53:00,41.3,36.8,30.41,South,184,0.0,4.0,84,0.00,,,0.00,Wunderground v.1.15,2013-02-24 04:53:00,
2013-02-23 20:58:00,41.2,36.7,30.41,South,184,0.0,4.0,84,0.00,,,0.00,Wunderground v.1.15,2013-02-24 04:58:00,
2013-02-23 21:00:00,41.2,36.7,30.42,South,184,0.0,0.0,84,0.00,,,0.00,Wunderground v.1.15,2013-02-24 05:00:00,
2013-02-23 21:05:00,41.2,36.7,30.42,South,184,0.0,2.0,84,0.00,,,0.00,Wunderground v.1.15,2013-02-24 05:05:00,
2013-02-23 21:10:00,41.3,36.5,30.42,South,184,0.0,0.0,83,0.00,,,0.00,Wunderground v.1.15,2013-02-24 05:10:00,
2013-02-23 21:15:00,41.4,36.6,30.42,SSE,162,0.0,5.0,83,0.00,,,0.00,Wunderground v.1.15,2013-02-24 05:15:00,
2013-02-23 21:20:00,41.5,36.4,30.41,South,169,0.0,7.0,82,0.00,,,0.00,Wunderground v.1.15,2013-02-24 05:20:00,
2013-02-23 21:25:00,41.6,35.9,30.42,SSE,165,3.0,7.0,80,0.00,,,0.00,Wunderground v.1.15,2013-02-24 05:25:00,
2013-02-23 21:30:00,41.7,35.7,30.42,SE,133,2.0,3.0,79,0.00,,,0.00,Wunderground v.1.15,2013-02-24 05:30:00,
2013-02-23 21:35:00,41.8,35.8,30.42,SSE,152,1.0,8.0,79,0.00,,,0.00,Wunderground v.1.15,2013-02-24 05:35:00,
2013-02-23 21:40:00,41.9,35.9,30.42,South,174,0.0,7.0,79,0.00,,,0.00,Wunderground v.1.15,2013-02-24 05:40:00,
2013-02-23 21:45:00,42.0,36.0,30.42,South,182,0.0,7.0,79,0.00,,,0.00,Wunderground v.1.15,2013-02-24 05:45:00,
2013-02-23 21:50:00,42.0,36.0,30.42,SSW,204,1.0,5.0,79,0.00,,,0.00,Wunderground v.1.15,2013-02-24 05:50:00,
2013-02-23 21:55:00,42.0,35.6,30.42,SSE,159,3.0,5.0,78,0.00,,,0.00,Wunderground v.1.15,2013-02-24 05:55:00,
2013-02-23 22:00:00,42.0,36.0,30.42,South,176,1.0,2.0,79,0.00,,,0.00,Wunderground v.1.15,2013-02-24 06:00:00,
2013-02-23 22:05:00,42.0,36.0,30.42,SW,222,0.0,2.0,79,0.00,,,0.00,Wunderground v.1.15,2013-02-24 06:05:00,
2013-02-23 22:10:00,42.0,36.0,30.42,South,178,1.0,3.0,79,0.00,,,0.00,Wunderground v.1.15,2013-02-24 06:10:00,
2013-02-23 22:15:00,41.9,35.9,30.42,SW,222,0.0,6.0,79,0.00,,,0.00,Wunderground v.1.15,2013-02-24 06:15:00,
2013-02-23 22:20:00,41.8,35.8,30.42,SW,219,1.0,5.0,79,0.00,,,0.00,Wunderground v.1.15,2013-02-24 06:20:00,
2013-02-23 22:25:00,41.8,35.8,30.43,South,184,1.0,7.0,79,0.00,,,0.00,Wunderground v.1.15,2013-02-24 06:25:00,
2013-02-23 22:30:00,41.7,35.3,30.43,SSW,201,2.0,5.0,78,0.00,,,0.00,Wunderground v.1.15,2013-02-24 06:30:00,
2013-02-23 22:35:00,41.7,35.3,30.43,SSW,195,0.0,6.0,78,0.00,,,0.00,Wunderground v.1.15,2013-02-24 06:35:00,
2013-02-23 22:40:00,41.6,35.2,30.43,SW,219,6.0,9.0,78,0.00,,,0.00,Wunderground v.1.15,2013-02-24 06:40:00,
2013-02-23 22:45:00,41.6,34.9,30.43,SW,223,6.0,10.0,77,0.00,,,0.00,Wunderground v.1.15,2013-02-24 06:45:00,
2013-02-23 22:50:00,41.6,34.9,30.43,SW,216,4.0,11.0,77,0.00,,,0.00,Wunderground v.1.15,2013-02-24 06:50:00,
2013-02-23 22:55:00,41.6,34.9,30.43,WSW,242,4.0,12.0,77,0.00,,,0.00,Wunderground v.1.15,2013-02-24 06:55:00,
2013-02-23 23:00:00,41.6,34.9,30.43,SSW,194,1.0,10.0,77,0.00,,,0.00,Wunderground v.1.15,2013-02-24 07:00:00,
2013-02-23 23:05:00,41.6,34.9,30.43,SSW,196,0.0,10.0,77,0.00,,,0.00,Wunderground v.1.15,2013-02-24 07:05:00,
2013-02-23 23:10:00,41.6,34.9,30.43,SSW,209,3.0,10.0,77,0.00,,,0.00,Wunderground v.1.15,2013-02-24 07:10:00,
2013-02-23 23:15:00,41.5,34.8,30.43,SSW,197,2.0,10.0,77,0.00,,,0.00,Wunderground v.1.15,2013-02-24 07:15:00,
2013-02-23 23:21:00,41.5,35.2,30.43,WSW,247,5.0,5.0,78,0.00,,,0.00,Wunderground v.1.15,2013-02-24 07:21:00,
2013-02-23 23:26:00,41.5,35.2,30.43,WSW,237,9.0,10.0,78,0.00,,,0.00,Wunderground v.1.15,2013-02-24 07:26:00,
2013-02-23 23:30:00,41.5,35.2,30.43,SSW,193,3.0,3.0,78,0.00,,,0.00,Wunderground v.1.15,2013-02-24 07:30:00,
2013-02-23 23:36:00,41.5,35.2,30.43,SSW,205,3.0,7.0,78,0.00,,,0.00,Wunderground v.1.15,2013-02-24 07:36:00,
2013-02-23 23:40:00,41.4,35.1,30.44,SSW,192,0.0,3.0,78,0.00,,,0.00,Wunderground v.1.15,2013-02-24 07:40:00,
2013-02-23 23:46:00,41.4,35.1,30.44,SSW,212,1.0,11.0,78,0.00,,,0.00,Wunderground v.1.15,2013-02-24 07:46:00,
2013-02-23 23:51:00,41.4,35.1,30.44,SSW,203,4.0,9.0,78,0.00,,,0.00,Wunderground v.1.15,2013-02-24 07:51:00,
2013-02-23 23:56:00,41.4,35.1,30.43,SW,223,2.0,9.0,78,0.00,,,0.00,Wunderground v.1.15,2013-02-24 07:56:00,